[[{"header":{"parameterUnit":"m.s-1","parameterCategory":1,"la1":30.2991,"la2":30.254,"lo1":-89.0895,"lo2":-89.0444,"dy":0.0017,"dx":0.0017,"nx":28,"ny":28,"refTime":"2025-06-13T03:00:00:Z","depth":0,"parameterNumber":2,"parameterNumberName":"U-component_of_WINDS"},"data":[0,0,0,0,0,0,0,0,0,0,0,0,0,0,0,0,0,0,0,0,0,0,0,0,0,0,0,0,0,0,0,0,0,0,0,0,0,0,0,0,0,0,0,0,0,0,0,0,0,0,0,0,0,0,0,0,0,0,-2.6635,-2.6634,0,-2.6565,-2.6564,-2.6563,-2.6495,-2.6494,-2.6493,-2.6492,-2.6419,-2.6418,-2.6417,0,0,0,0,0,0,0,0,0,0,0,0,0,-2.6712,-2.6711,-2.6635,-2.6634,-2.6633,-2.6565,-2.6564,-2.6563,-2.6495,-2.6494,-2.6493,-2.6492,-2.6419,-2.6418,-2.6417,0,0,0,0,0,0,0,0,0,0,0,0,0,-2.6663,-2.671,-2.6635,-2.6591,-2.6587,-2.6565,-2.6564,-2.6562,-2.6495,-2.6494,-2.6493,-2.6492,-2.642,-2.6418,-2.6417,-2.6432,0,0,-2.6411,-2.6411,0,0,0,0,0,0,0,0,-2.6666,-2.6661,-2.6599,-2.6594,-2.6589,-2.6537,-2.6564,-2.6519,-2.6496,-2.653,-2.6492,-2.6491,-2.6459,-2.6454,-2.6444,-2.6428,-2.6425,-2.6411,-2.641,-2.6409,-2.6409,0,0,0,0,0,0,0,-2.667,-2.6663,-2.6607,-2.6598,-2.6592,-2.6575,-2.6567,-2.6555,-2.6503,-2.6527,-2.6522,-2.6515,-2.6457,-2.6446,-2.6442,-2.6424,-2.6411,-2.641,-2.6409,-2.6408,-2.6418,-2.642,0,0,0,0,0,0,-2.668,-2.6667,-2.6609,-2.6605,-2.6625,-2.6575,-2.6566,-2.6555,-2.6503,-2.6494,-2.6516,-2.6512,-2.6449,-2.6444,-2.6439,-2.6453,-2.6409,-2.6408,-2.6407,-2.6417,-2.6419,-2.642,0,0,0,0,0,0,-2.6682,-2.6675,-2.6612,-2.6634,-2.6625,-2.6575,-2.6564,-2.6555,-2.6544,-2.6494,-2.6485,-2.6514,-2.6448,-2.6441,-2.6434,-2.645,-2.6407,-2.6405,-2.6415,-2.6417,-2.6419,-2.6482,0,0,0,0,0,0,-2.6684,-2.6676,-2.6682,-2.6635,-2.6624,-2.6609,-2.6565,-2.6554,-2.6541,-2.6535,-2.649,-2.6482,-2.6447,-2.6437,-2.6433,-2.6446,-2.6404,-2.6414,-2.6416,-2.6419,-2.6478,-2.6486,-2.6492,0,0,0,0,0,-2.6687,-2.6702,-2.6682,-2.6676,-2.663,-2.661,-2.6604,-2.6563,-2.6543,-2.6547,-2.6516,-2.6483,-2.6449,-2.6437,-2.6431,-2.6445,-2.6413,-2.6416,-2.6418,-2.6475,-2.6484,-2.6492,0,0,0,0,0,0,-2.6751,-2.6695,-2.6672,-2.6672,-2.6647,-2.6599,-2.6603,-2.6574,-2.6553,-2.6549,-2.6499,-2.649,-2.6488,-2.6466,-2.6454,-2.6457,-2.6426,-2.6428,-2.6471,-2.648,-2.6487,-2.6491,-2.6403,0,0,0,0,0,-2.6765,-2.6754,-2.6705,-2.671,-2.6698,-2.6654,-2.6643,-2.6615,-2.6586,-2.6574,-2.6542,-2.6515,-2.6498,-2.6488,-2.647,-2.6476,-2.6465,-2.6482,-2.6489,-2.6495,-2.6497,-2.6498,-2.6505,-2.643,-2.643,-2.643,0,0,-2.6793,-2.6762,-2.6757,-2.6722,-2.6699,-2.6688,-2.6644,-2.6635,-2.6627,-2.6573,-2.6564,-2.654,-2.6506,-2.6506,-2.6504,-2.6487,-2.6516,-2.6499,-2.6504,-2.6502,-2.6502,-2.6509,-2.6515,-2.6432,-2.6431,-2.6431,0,0,-2.684,-2.6815,-2.6816,-2.6794,-2.676,-2.673,-2.6731,-2.6687,-2.6669,-2.666,-2.6619,-2.6609,-2.6581,-2.6559,-2.6544,-2.6585,-2.6554,-2.6581,-2.6616,-2.6618,-2.6624,-2.6629,-2.6643,-2.6648,-2.6583,-2.6583,-2.6583,0,-2.688,-2.6862,-2.6821,-2.6814,-2.6799,-2.6751,-2.6752,-2.6733,-2.6694,-2.6685,-2.6667,-2.6632,-2.6606,-2.6599,-2.661,-2.66,-2.6598,-2.6584,-2.6627,-2.6631,-2.6635,-2.6648,-2.6653,-2.6586,-2.6586,-2.6585,-2.6585,0,-2.6913,-2.6902,-2.6907,-2.6871,-2.6858,-2.6855,-2.6813,-2.6804,-2.6777,-2.675,-2.6741,-2.6709,-2.6684,-2.668,-2.6654,-2.667,-2.6661,-2.6636,-2.6603,-2.6647,-2.6657,-2.6662,-2.6591,-2.659,-2.6589,-2.6588,0,0,-2.6995,-2.6938,-2.694,-2.6924,-2.6883,-2.6873,-2.6869,-2.6844,-2.6838,-2.6814,-2.6808,-2.6787,-2.6763,-2.6747,-2.6718,-2.672,-2.6753,-2.6694,-2.6692,-2.6705,-2.6769,-2.6787,-2.6794,-2.6733,-2.6734,-2.6735,-2.6772,0,-2.7034,-2.7022,-2.6986,-2.6985,-2.6974,-2.6929,-2.6925,-2.69,-2.6875,-2.6862,-2.6834,-2.6819,-2.679,-2.6779,-2.678,-2.6749,-2.6765,-2.6746,-2.6727,-2.6727,-2.6735,-2.6799,-2.6818,-2.6854,-2.6776,-2.6776,-2.6777,0,-2.7077,-2.7056,-2.7055,-2.7015,-2.7009,-2.7006,-2.6981,-2.697,-2.6941,-2.6922,-2.6905,-2.6873,-2.6865,-2.6837,-2.6826,-2.6814,-2.6805,-2.6789,-2.6789,-2.6784,-2.6753,-2.6795,-2.6865,-2.687,-2.6783,-2.6783,-2.6782,0,-2.7136,-2.7108,-2.7103,-2.7091,-2.7045,-2.7044,-2.7024,-2.6994,-2.6982,-2.6961,-2.6952,-2.6931,-2.6918,-2.6902,-2.6865,-2.6848,-2.6859,-2.6827,-2.6842,-2.6843,-2.6845,-2.6845,-2.6913,-2.6841,-2.6841,-2.6841,-2.6841,0,-2.7182,-2.7183,-2.7129,-2.7127,-2.7126,-2.7085,-2.7085,-2.7062,-2.7036,-2.7027,-2.6988,-2.6981,-2.6934,-2.6921,-2.6893,-2.6888,-2.6883,-2.6867,-2.6859,-2.687,-2.6872,-2.6862,-2.6858,-2.6843,-2.6842,-2.6842,-2.6842,0,-2.7247,-2.7212,-2.7204,-2.7161,-2.7151,-2.7152,-2.7116,-2.7112,-2.7085,-2.7075,-2.707,-2.7028,-2.7012,-2.6974,-2.6947,-2.6928,-2.693,-2.6917,-2.694,-2.6935,-2.6952,-2.6951,-2.7014,-2.702,-2.6947,-2.6948,-2.6948,0,-2.7279,-2.7278,-2.7236,-2.7228,-2.7211,-2.7198,-2.7186,-2.7145,-2.7134,-2.7102,-2.7101,-2.7082,-2.7064,-2.7041,-2.7007,-2.6987,-2.6972,-2.6996,-2.6969,-2.6979,-2.6971,-2.6971,-2.697,-2.7001,-2.7002,-2.7003,-2.7004,0,-2.7337,-2.732,-2.7304,-2.7282,-2.7269,-2.725,-2.7229,-2.7224,-2.7179,-2.7169,-2.7152,-2.7138,-2.7112,-2.7093,-2.7068,-2.7048,-2.7018,-2.7013,-2.7015,-2.7025,-2.7038,-2.7031,-2.6955,-2.7011,-2.7011,-2.701,-2.701,-2.7009,-2.7385,-2.7383,-2.7353,-2.7337,-2.7317,-2.7298,-2.7292,-2.7265,-2.7251,-2.7226,-2.7203,-2.7189,-2.716,-2.7124,-2.7106,-2.7094,-2.7079,-2.7082,-2.7083,-2.7084,-2.7088,-2.7042,-2.7089,-2.7089,-2.7089,-2.7089,-2.7089,0,-2.7441,-2.742,-2.7406,-2.7378,-2.7365,-2.734,-2.7315,-2.7306,-2.7294,-2.727,-2.7254,-2.7235,-2.7217,-2.7183,-2.7162,-2.7159,-2.7145,-2.7155,-2.7154,-2.715,-2.7103,-2.7103,-2.7167,-2.7167,-2.7167,-2.7167,-2.7167,-2.7167,-2.7468,-2.7463,-2.7443,-2.7427,-2.7406,-2.7392,-2.738,-2.7362,-2.7343,-2.7324,-2.7309,-2.7287,-2.726,-2.7237,-2.7219,-2.721,-2.7203,-2.7217,-2.7204,-2.716,-2.7153,-2.7146,-2.7145,-2.7217,-2.7217,-2.725,-2.7251,-2.7251]},{"header":{"parameterUnit":"m.s-1","parameterCategory":1,"la1":30.2991,"la2":30.254,"lo1":-89.0895,"lo2":-89.0444,"dy":0.0017,"dx":0.0017,"nx":28,"ny":28,"refTime":"2025-06-13T03:00:00:Z","depth":0,"parameterNumber":3,"parameterNumberName":"V-component_of_WINDS"},"data":[0,0,0,0,0,0,0,0,0,0,0,0,0,0,0,0,0,0,0,0,0,0,0,0,0,0,0,0,0,0,0,0,0,0,0,0,0,0,0,0,0,0,0,0,0,0,0,0,0,0,0,0,0,0,0,0,0,0,4.6743,4.6743,0,4.6709,4.6709,4.6709,4.6634,4.6632,4.6631,4.6629,4.6596,4.6597,4.6597,0,0,0,0,0,0,0,0,0,0,0,0,0,4.6745,4.6746,4.6743,4.6743,4.6743,4.6709,4.6709,4.6708,4.6634,4.6632,4.663,4.6629,4.6596,4.6596,4.6597,0,0,0,0,0,0,0,0,0,0,0,0,0,4.6731,4.6746,4.6744,4.6701,4.6697,4.6709,4.6709,4.6708,4.6635,4.6632,4.663,4.6628,4.6596,4.6596,4.6597,4.6648,0,0,4.66,4.66,0,0,0,0,0,0,0,0,4.6732,4.6731,4.6708,4.6704,4.67,4.6673,4.6697,4.6688,4.6635,4.6659,4.6629,4.6627,4.6624,4.6622,4.6621,4.6646,4.6645,4.66,4.66,4.66,4.6601,0,0,0,0,0,0,0,4.6733,4.6732,4.673,4.6708,4.6703,4.6685,4.668,4.6695,4.6654,4.6656,4.6651,4.6648,4.6621,4.662,4.6619,4.6644,4.66,4.66,4.6601,4.6601,4.6709,4.6711,0,0,0,0,0,0,4.674,4.6734,4.6731,4.6729,4.6711,4.6687,4.6681,4.6684,4.6654,4.6647,4.665,4.6644,4.662,4.6619,4.6618,4.6675,4.66,4.6601,4.6602,4.6707,4.6709,4.6712,0,0,0,0,0,0,4.674,4.6741,4.6732,4.673,4.6727,4.6689,4.6693,4.6685,4.6684,4.6649,4.6641,4.6656,4.6618,4.6617,4.6641,4.6672,4.6602,4.6602,4.6704,4.6707,4.6711,4.6789,0,0,0,0,0,0,4.6741,4.6741,4.676,4.6731,4.6728,4.6756,4.6695,4.6686,4.6685,4.6678,4.6653,4.6647,4.6616,4.664,4.6642,4.6672,4.6603,4.6701,4.6705,4.671,4.6784,4.6795,4.6805,0,0,0,0,0,4.6741,4.6784,4.6761,4.6761,4.675,4.6758,4.6756,4.6719,4.6688,4.6707,4.6684,4.6648,4.6669,4.6643,4.6644,4.6676,4.6699,4.6704,4.6709,4.6779,4.6793,4.6804,0,0,0,0,0,0,4.6818,4.6779,4.6754,4.6788,4.6777,4.6745,4.6767,4.6735,4.6733,4.6727,4.6682,4.6677,4.6707,4.6693,4.6665,4.6723,4.6678,4.6684,4.673,4.6743,4.6754,4.6756,4.6604,0,0,0,0,0,4.6839,4.6848,4.6814,4.6847,4.6843,4.6806,4.6808,4.6781,4.6768,4.6763,4.6742,4.6731,4.6734,4.6738,4.674,4.6781,4.6775,4.6803,4.6814,4.6823,4.6829,4.6849,4.6861,4.673,4.673,4.6729,0,0,4.6883,4.6862,4.6871,4.6862,4.685,4.6861,4.6803,4.6816,4.6824,4.6765,4.6786,4.677,4.6755,4.6787,4.6801,4.6777,4.6863,4.683,4.6837,4.6838,4.6856,4.6868,4.6879,4.6733,4.6733,4.6732,0,0,4.6967,4.6953,4.6979,4.6968,4.695,4.6925,4.6932,4.6905,4.6892,4.6912,4.6868,4.6876,4.6884,4.6875,4.6871,4.6952,4.6918,4.6953,4.7009,4.7029,4.704,4.7049,4.7077,4.7088,4.6959,4.6959,4.6959,0,4.7024,4.7037,4.6997,4.7013,4.701,4.6957,4.6983,4.6974,4.6959,4.6958,4.6932,4.694,4.6926,4.6955,4.6975,4.6974,4.698,4.6956,4.7041,4.705,4.7058,4.7084,4.7095,4.6964,4.6963,4.6963,4.6962,0,4.7107,4.7117,4.7141,4.7126,4.7126,4.7147,4.711,4.7115,4.7088,4.7066,4.7087,4.7068,4.7065,4.707,4.7044,4.7096,4.7082,4.7049,4.7003,4.7075,4.7099,4.7109,4.697,4.6969,4.6967,4.6966,0,0,4.724,4.7202,4.7211,4.7203,4.718,4.7187,4.7206,4.7202,4.7207,4.7198,4.7212,4.722,4.7189,4.7185,4.7157,4.7175,4.724,4.714,4.7139,4.7159,4.7295,4.732,4.7332,4.7217,4.7219,4.722,4.7297,0,4.7318,4.7348,4.7312,4.7349,4.7358,4.7307,4.7323,4.731,4.7291,4.7295,4.7273,4.7279,4.7239,4.7236,4.7251,4.7229,4.7267,4.7223,4.723,4.7231,4.7236,4.7345,4.7371,4.7444,4.7306,4.7307,4.7308,0,4.7414,4.7409,4.7447,4.742,4.7423,4.7438,4.7431,4.7436,4.7421,4.7405,4.74,4.7367,4.7383,4.7339,4.7361,4.7332,4.7333,4.7322,4.7324,4.7323,4.7274,4.7347,4.7466,4.7477,4.7323,4.7322,4.7321,0,4.7507,4.7509,4.7532,4.7527,4.7497,4.7508,4.7496,4.7479,4.7478,4.7473,4.7472,4.7469,4.7467,4.7465,4.7432,4.7402,4.7458,4.7411,4.7445,4.7446,4.7459,4.7459,4.758,4.7461,4.746,4.746,4.746,0,4.7598,4.7624,4.7573,4.7587,4.7614,4.7572,4.76,4.7583,4.7567,4.7577,4.7533,4.7543,4.7498,4.7504,4.7478,4.75,4.75,4.7487,4.748,4.7491,4.7493,4.7491,4.7485,4.7463,4.7462,4.7462,4.7461,0,4.7706,4.7673,4.7695,4.7664,4.7657,4.7678,4.7651,4.7663,4.764,4.7653,4.7654,4.7618,4.7622,4.7588,4.7587,4.7569,4.7603,4.7587,4.7608,4.7603,4.764,4.7637,4.7764,4.7779,4.765,4.7652,4.7653,0,4.7767,4.7785,4.7756,4.7759,4.7749,4.7755,4.7754,4.7714,4.7715,4.7698,4.7712,4.7713,4.7711,4.772,4.7694,4.7692,4.7676,4.772,4.7675,4.7686,4.7676,4.7675,4.7677,4.773,4.7732,4.7733,4.7734,0,4.7878,4.786,4.7861,4.7856,4.7856,4.785,4.7842,4.7847,4.7803,4.7807,4.781,4.7809,4.7806,4.7807,4.78,4.7787,4.7754,4.7748,4.7756,4.7768,4.7779,4.7773,4.7634,4.7746,4.7744,4.7744,4.7743,4.7742,4.7964,4.7977,4.7959,4.796,4.7949,4.7942,4.7952,4.7929,4.7931,4.7926,4.7902,4.791,4.7893,4.788,4.7871,4.7876,4.7855,4.7866,4.7869,4.7872,4.7879,4.7778,4.7875,4.7874,4.7874,4.7874,4.7873,0,4.8072,4.8057,4.806,4.8048,4.805,4.8017,4.8006,4.8009,4.8016,4.8004,4.8003,4.8006,4.8007,4.7981,4.7978,4.7987,4.7972,4.7988,4.7987,4.7984,4.7899,4.7892,4.8,4.8,4.8,4.8,4.8,4.8,4.8129,4.815,4.813,4.8145,4.813,4.8137,4.8133,4.8126,4.8116,4.8122,4.8122,4.8104,4.8086,4.8081,4.808,4.8072,4.8073,4.8095,4.8082,4.8003,4.799,4.7979,4.7972,4.8096,4.8096,4.8167,4.8168,4.8168]}]]